Weather History for Panama City, FL

Change the Weather History Date:

Friday, August 2, 2013

  Actual Average Record
Temperature  
Mean Temperature 82 °F -  
Max Temperature 89 °F - 94 °F (2014)
Min Temperature 74 °F - 73 °F (2014)
Degree Days  
Heating Degree Days 0    
Cooling Degree Days 17    
Growing Degree Days 32 (Base 50)    
Moisture  
Dew Point 75 °F    
Average Humidity 79    
Maximum Humidity 94    
Minimum Humidity 64    
Precipitation  
Precipitation T in - 0.15 in (2010)
Month to date precipitation  
Year to date precipitation  
Sea Level Pressure  
Sea Level Pressure 30.00 in    
Wind  
Wind Speed 2 mph (South)    
Max Wind Speed 99 mph    
Max Gust Speed 109 mph    
Visibility 8 miles    
Events      
T = Trace of Precipitation, MM = Missing Value Source: NWS Daily Summary

Daily Weather History Graph

Daily Weather History Graph

Search for Another Location

Airport:

Trip Planner

Search our weather history database for the weather conditions in past years. The results will help you decide how hot, cold, wet, or windy it might be!

Date:

Astronomy

Aug. 02, 2013 Rise Set
Actual Time 7:02 AM EDT 8:36 PM EDT
Civil Twilight 6:36 AM EDT 9:02 PM EDT
Nautical Twilight 6:05 AM EDT 9:33 PM EDT
Astronomical Twilight 5:32 AM EDT 10:05 PM EDT
Moon 3:25 AM EDT (8/2) 5:30 PM EDT (8/2)
Length of Visible Light 14h 25m
Length of Day
13h 33m
Waning Crescent, 16% of the Moon is Illuminated
Aug 2
Waning Crescent
Aug 6
New
Aug 14
First Quarter
Aug 20
Full
Aug 28
Last Quarter

Hourly Weather History & Observations

Time (EDT) Temp. Heat Index Dew Point Humidity Pressure Visibility Wind Dir Wind Speed Gust Speed Precip Events Conditions
12:53 AM 77.0 °F - 75.0 °F 94% 29.99 in 9.0 mi Calm Calm - N/A   Partly Cloudy
1:53 AM 75.9 °F - 73.9 °F 94% 29.99 in 8.0 mi Calm Calm - N/A   Scattered Clouds
2:53 AM 77.0 °F - 75.0 °F 94% 29.97 in 7.0 mi Calm Calm - N/A   Overcast
3:53 AM 75.9 °F - 73.9 °F 94% 29.96 in 7.0 mi Calm Calm - N/A   Clear
4:53 AM 75.0 °F - 73.0 °F 94% 29.96 in 7.0 mi Calm Calm - N/A   Clear
5:44 AM 75.2 °F - 71.6 °F 89% 29.94 in 7.0 mi North - - N/A   Clear
5:51 AM 75.2 °F - 73.4 °F 94% 29.94 in 7.0 mi North - - N/A   Clear
5:53 AM 75.0 °F - 73.0 °F 94% 29.98 in 6.0 mi North - - N/A   Clear
6:53 AM 75.0 °F - 73.0 °F 94% 29.99 in 6.0 mi Calm Calm - N/A   Partly Cloudy
7:05 AM 75.2 °F - 73.4 °F 94% 29.95 in 5.0 mi Calm Calm - N/A   Partly Cloudy
7:30 AM 75.2 °F - 73.4 °F 94% 29.96 in 4.0 mi Calm Calm - N/A   Mostly Cloudy
7:53 AM 75.9 °F - 73.9 °F 94% 30.00 in 5.0 mi Calm Calm - N/A   Mostly Cloudy
8:00 AM 75.2 °F - 73.4 °F 94% 29.97 in 6.0 mi Calm Calm - N/A   Scattered Clouds
8:53 AM 81.0 °F 87.9 °F 77.0 °F 88% 30.02 in 9.0 mi Calm Calm - N/A   Scattered Clouds
9:49 AM 84.2 °F 94.1 °F 77.0 °F 79% 30.00 in 10.0 mi Calm Calm - N/A   Mostly Cloudy
9:53 AM 82.9 °F 90.8 °F 75.9 °F 79% 30.03 in 10.0 mi Calm Calm - N/A   Mostly Cloudy
10:53 AM 86.0 °F 96.0 °F 75.9 °F 72% 30.04 in 10.0 mi Calm Calm - N/A   Mostly Cloudy
11:00 AM 86.0 °F 95.1 °F 75.2 °F 70% 30.00 in 10.0 mi East 3.5 mph - N/A   Scattered Clouds
11:53 AM 86.0 °F 95.1 °F 75.0 °F 70% 30.04 in 10.0 mi SE 8.1 mph - N/A   Scattered Clouds
12:53 PM 88.0 °F 98.5 °F 75.9 °F 67% 30.04 in 10.0 mi South 12.7 mph - N/A   Partly Cloudy
1:53 PM 89.1 °F 100.2 °F 75.9 °F 65% 30.04 in 10.0 mi SSE 12.7 mph - N/A   Scattered Clouds
2:53 PM 88.0 °F 98.5 °F 75.9 °F 67% 30.02 in 10.0 mi South 11.5 mph - N/A   Partly Cloudy
3:53 PM 88.0 °F 97.5 °F 75.0 °F 65% 30.00 in 10.0 mi South 11.5 mph - N/A   Scattered Clouds
4:53 PM 86.0 °F 96.0 °F 75.9 °F 72% 29.99 in 10.0 mi South 10.4 mph - N/A   Scattered Clouds
5:53 PM 86.0 °F 96.0 °F 75.9 °F 72% 30.00 in 10.0 mi South 8.1 mph - N/A   Scattered Clouds
6:53 PM 86.0 °F 96.0 °F 75.9 °F 72% 30.00 in 10.0 mi South 9.2 mph - N/A   Scattered Clouds
7:53 PM 84.9 °F 94.1 °F 75.9 °F 74% 30.01 in 10.0 mi South 5.8 mph - N/A   Scattered Clouds
8:53 PM 82.9 °F 91.8 °F 77.0 °F 82% 30.02 in 10.0 mi SW 3.5 mph - N/A   Scattered Clouds
9:53 PM 82.0 °F 90.2 °F 77.0 °F 85% 30.04 in 10.0 mi SSW 4.6 mph - N/A   Partly Cloudy
10:53 PM 81.0 °F 87.3 °F 75.9 °F 85% 30.07 in 10.0 mi South 3.5 mph - N/A   Partly Cloudy
11:53 PM 81.0 °F 87.9 °F 77.0 °F 88% 30.07 in 10.0 mi Calm Calm - N/A   Partly Cloudy